EA5DHO-13 Weather Reports


Display with metric or nautical units.
time (UTC)temp
F
wind
direction
speed
MPH
gust
MPH
rain 1hr
in
rain 24hr
in
rain mn
in
humidity
%
barometer
mb
20260505022500 61 0.0 2.0 0.00 0.00 0.00 91 1014.1
20260505021457 61 338 2.0 2.0 0.00 0.00 0.00 91 1014.2
20260505020453 61 0.0 2.0 0.00 0.00 0.00 91 1014.0
20260505015450 61 23 2.0 2.0 0.00 0.00 0.00 90 1014.0
20260505014508 61 23 0.0 2.0 0.00 0.00 0.00 90 1014.0
20260505013443 61 45 1.0 2.0 0.00 0.00 0.00 90 1014.1
20260505012501 61 45 1.0 2.0 0.00 0.00 0.00 90 1014.1
20260505011437 61 23 0.0 2.0 0.00 0.00 0.00 90 1014.2
20260505010435 61 45 0.0 2.0 0.00 0.00 0.00 89 1014.4
20260505005430 61 0.0 0.0 0.00 0.00 0.00 89 1014.6
20260505004427 61 0.0 0.0 0.00 0.00 0.00 89 1014.7
20260505003425 61 45 1.0 2.0 0.00 0.00 0.00 88 1014.8
20260505002421 62 23 2.0 4.0 0.00 0.00 0.00 88 1014.8
20260505001439 62 23 2.0 4.0 0.00 0.00 0.00 87 1014.9
20260505000516 62 45 1.0 2.0 0.00 0.00 0.00 87 1014.9
20260504235511 62 23 2.0 2.0 0.00 0.00 0.00 86 1014.8
20260504234528 63 64 1.0 4.0 0.00 0.00 0.00 86 1014.9
20260504233505 63 68 1.0 2.0 0.00 0.00 0.00 86 1014.9
20260504232502 63 49 1.0 4.0 0.00 0.00 0.00 86 1014.7
20260504231458 63 68 1.0 2.0 0.00 0.00 0.00 86 1014.9
20260504230516 63 68 1.0 2.0 0.00 0.00 0.00 85 1014.9
20260504225452 63 68 2.0 4.0 0.00 0.00 0.00 85 1014.8
20260504224448 63 45 1.0 4.0 0.00 0.00 0.00 85 1014.8
20260504223445 63 28 2.0 4.0 0.00 0.00 0.00 85 1014.8
20260504222443 63 68 1.0 4.0 0.00 0.00 0.00 85 1014.7
20260504221439 63 45 1.0 2.0 0.00 0.00 0.00 85 1014.6
20260504220436 64 45 1.0 2.0 0.00 0.00 0.00 85 1014.7
20260504215432 64 45 1.0 4.0 0.00 0.00 0.00 85 1014.7
20260504214430 64 0.0 2.0 0.00 0.00 0.00 85 1014.6
20260504213427 64 68 2.0 4.0 0.00 0.00 0.00 85 1014.8
20260504212444 64 39 2.0 4.0 0.00 0.00 0.00 86 1014.6
20260504211419 64 68 2.0 2.0 0.00 0.00 0.00 86 1014.5
20260504210456 64 30 3.0 7.0 0.00 0.00 0.00 86 1014.6
20260504205514 64 23 2.0 4.0 0.00 0.00 0.00 87 1014.5
20260504204510 64 27 3.0 4.0 0.00 0.00 0.00 88 1014.4
20260504203507 64 31 4.0 8.0 0.00 0.00 0.00 88 1014.3
20260504202503 65 68 3.0 4.0 0.00 0.00 0.00 88 1014.2
20260504201520 65 359 2.0 4.0 0.00 0.00 0.00 87 1014.0
20260504200457 65 58 1.0 6.0 0.00 0.00 0.00 87 1013.7
20260504195454 66 37 3.0 7.0 0.00 0.00 0.00 86 1013.5
20260504194511 66 45 3.0 6.0 0.00 0.00 0.00 86 1013.4
20260504193507 66 85 3.0 8.0 0.00 0.00 0.00 86 1013.3
20260504192444 66 52 4.0 7.0 0.00 0.00 0.00 85 1013.1
20260504191441 66 45 4.0 9.0 0.00 0.00 0.00 84 1013.1
20260504190437 66 60 4.0 8.0 0.00 0.00 0.00 84 1013.0
20260504185434 67 44 4.0 11.0 0.00 0.00 0.00 82 1013.0
20260504184431 67 35 3.0 7.0 0.00 0.00 0.00 81 1013.0
20260504183429 67 45 5.0 9.0 0.00 0.00 0.00 82 1012.8
20260504182424 67 54 4.0 9.0 0.00 0.00 0.00 82 1012.7
20260504181421 67 90 6.0 11.0 0.00 0.00 0.00 82 1012.6
20260504180418 68 68 4.0 7.0 0.00 0.00 0.00 81 1012.6
20260504175415 68 45 5.0 9.0 0.00 0.00 0.00 80 1012.5
20260504174512 68 90 7.0 13.0 0.00 0.00 0.00 79 1012.4
20260504173508 69 84 4.0 7.0 0.00 0.00 0.00 76 1012.3
20260504172548 69 90 6.0 11.0 0.00 0.00 0.00 74 1012.1
20260504171502 70 146 5.0 8.0 0.00 0.00 0.00 72 1011.9
20260504170459 71 89 3.0 6.0 0.00 0.00 0.00 72 1012.0
20260504150450 70 100 10.0 15.0 0.00 0.00 0.00 74 1012.1
20260504140431 70 105 8.0 11.0 0.00 0.00 0.00 73 1012.6
20260504130513 71 7 4.0 9.0 0.00 0.00 0.00 73 1013.1
20260504110453 67 86 4.0 7.0 0.00 0.00 0.00 79 1014.5
20260504100514 66 89 5.0 9.0 0.00 0.00 0.00 81 1015.1
20260504081458 66 0.0 2.0 0.00 0.00 0.00 79 1015.0
20260504080435 66 0.0 2.0 0.00 0.00 0.00 79 1015.0
20260504050438 64 45 1.0 2.0 0.00 0.01 0.00 86 1014.6
20260504045433 64 0.0 2.0 0.00 0.01 0.00 86 1014.6
20260504044430 63 45 0.0 2.0 0.00 0.01 0.00 86 1014.6
20260504043427 63 0.0 2.0 0.00 0.01 0.00 86 1014.6
20260504042425 64 45 0.0 2.0 0.00 0.01 0.00 86 1014.6
20260504041420 64 45 1.0 2.0 0.00 0.01 0.00 86 1014.8
20260504040418 64 0.0 0.0 0.00 0.01 0.00 85 1014.8
20260504035614 64 0.0 2.0 0.00 0.01 0.00 85 1014.9
20260504034531 64 0.0 2.0 0.00 0.01 0.00 85 1015.0
20260504033509 64 0.0 2.0 0.00 0.01 0.00 85 1015.1
20260504032526 64 0.0 2.0 0.00 0.01 0.00 86 1015.2
20260504031501 64 0.0 0.0 0.00 0.01 0.00 86 1015.3
20260504030458 63 0.0 0.0 0.00 0.01 0.00 86 1015.4
20260504025455 64 0.0 0.0 0.00 0.01 0.00 87 1015.5
20260504024513 64 0.0 0.0 0.00 0.01 0.00 87 1015.5
20260504023450 63 0.0 2.0 0.00 0.01 0.00 87 1015.5